NOAA 16 DEB, 41081

Orbit data source: Space-Track

NOAA 16 DEB, 41081 is space debris in SSO originally from a launch on Thu, 21 Sep 2000 UTC launched from the Air Force Western Test Range (AFWTR). Debris objects in space refer to the collection of defunct objects orbiting the Earth. Examples of debris include non-operational satellites, rocket bodies, and fragments generated from explosions, collisions, or faulty payload assembly.

Loading next visibility...
Identifier
41081, 2000-055AQ
Orbit
SSO
Country
Flag of USUS
Related business
Manufacturer
Unknown
Mission
Spacecraft
Bus & Motor
Unknown
Mass
Unknown
Launch date (UTC)
2000-09-21 (26 years ago)
Launch vehicle
Unknown
Launch site
Air Force Western Test Range (AFWTR)
Object type
Payload
Rocket body
Debris
Shape & HBR
Unknown shape, 0.1 m
Radar Cross Section
Medium (>0.1 m² and <1 m²)

Expand to show TLE details & history
Last TLE update: 2 days ago

TLE from 2 days ago
0 NOAA 16 DEB
1 41081U 00055AQ  26171.40584051  .00000654  00000-0  29768-3 0  9998
2 41081  99.1991  41.7832 0135633 302.7438  56.0724 14.20676058545666
Epoch: 2026-06-20T09:44Z
TLE epoch observation values (Epoch: 2026-06-20T09:44:24.620Z)
Latitude
-0.00005°
Longitude
-12.9403°
Altitude
772.364 km
Speed
7.496 km/s
True Right ascension
02h 47m 07s
True Declination
0° 00' 00"
Sunlit
Object was in daylight at epoch
Visualization orbit readout
Latitude
Unknown
Longitude
Unknown
Altitude
Unknown
Speed
Unknown
Apparent Right ascension
Unknown
Apparent Declination
Unknown
Sunlit
N/A
Visualization observer readout
Local Sidereal Time
22:00:14
Azimuth
Unknown
Elevation
Unknown
Doppler factor
Unknown
Orbital elements
Apogee altitude
917.882 km
Perigee altitude
722.614 km
Semi-major axis
7,198.385 km
Eccentricity
0.01356
Inclination
99.1991°
RAAN
41.7832°
Arg. of periapsis
302.7438°
True anomaly
57.37422°
Mean anomaly
56.0724°
Eccentric anomaly
56.72209°
Mean motion
3.55378 °/min
Orbital period
101.3 mins
BSTAR
0.00029768
Loading maneuver chart data...
Computing Atmospheric mass density...
Loading historical data...
Loading historical data...
Loading historical data...
Loading historical data...
Loading historical data...
Loading historical data...
Loading historical data...

Documentation

Showing up to 5 results
|